Location: Poughquag
(41.6090°N, 73.6820°W)
Time: 05:19:02
(UTC-04:00)

STARLINK-1360 - Pass Details

Date: 29 May 2020
Orbit: 549 x 550 km, 53.0° (Epoch: 26 September)

Event Time Altitude Azimuth Distance (km) Brightness Sun altitude
Rises 03:12:10 0° 298° (WNW) 2,703 7.1 -18.9°
Reaches altitude 10° 03:15:05 10° 319° (NW) 1,816 6.4 -18.6°
Maximum altitude 03:17:47 17° 0° (N) 1,446 6.5 -18.3°
Drops below altitude 10° 03:20:29 10° 41° (NE) 1,822 7.6 -18.0°
Sets 03:23:25 0° 63° (ENE) 2,717 8.3 -17.7°
